Temperature
9 9 9 9 9 9 9 9 9 9 9 9 9 9 9 9 9 10 10 10 10 10 10 10 10 10 10 10 10 10 10 10 10 10 10 10 10 11 11 11 11 11 11
8 8 8 8 8 8 8 8 8 8 8 8 8 9 9 9 9 9 9 10 10 10 10 10 10 10 10 10 10 10 10 10 10 10 10 10 10 10 10 11 11 10 10
8 8 8 8 8 8 8 8 8 8 8 8 8 8 8 8 8 9 9 9 9 9 9 9 9 9 9 9 9 9 9 10 9 9 9 9 10 10 10 10 10 10 10
7 7 7 7 7 7 7 7 7 7 7 7 7 8 8 8 8 8 8 8 9 9 9 9 9 9 9 9 9 9 9 9 9 9 9 9 9 9 9 9 10 10 10
6 7 7 7 7 6 7 6 6 7 7 7 7 7 7 7 7 7 7 8 8 8 8 8 8 8 8 8 8 8 8 8 8 8 8 9 9 9 9 9 9 9 9
6 6 6 6 6 6 6 6 6 6 6 6 6 6 6 6 6 6 7 7 7 7 7 8 8 8 8 8 8 8 8 8 8 8 8 8 8 8 8 8 8 9 9
5 5 5 6 5 5 5 5 5 5 5 5 5 5 5 5 5 6 6 6 6 6 7 7 7 7 7 7 8 8 7 7 7 7 8 8 8 8 8 8 8 8 8
5 5 5 5 5 5 5 5 5 5 5 4 4 4 4 4 5 5 5 5 5 6 6 6 6 6 7 7 7 7 7 7 7 7 7 7 7 7 7 7 7 7 8
4 4 4 4 4 4 4 4 4 4 4 4 4 4 3 3 3 4 4 4 5 5 5 5 5 6 6 6 6 7 6 6 6 6 6 6 7 7 7 7 7 7 7
3 3 3 3 3 4 4 4 4 4 4 3 3 3 4 3 3 2 3 4 4 4 4 4 5 5 5 6 6 6 6 6 6 6 6 6 6 6 6 6 6 6 7
3 3 3 3 3 3 3 3 3 3 3 3 3 3 3 3 3 2 2 2 3 3 4 4 4 4 5 5 5 5 5 5 5 5 5 5 5 5 5 5 5 6 6
2 2 2 2 2 2 2 2 2 2 2 2 2 2 2 2 2 2 2 2 2 2 3 3 3 3 4 4 4 4 4 4 5 4 4 4 5 5 5 5 5 5 5
1 1 1 1 1 1 1 1 1 1 1 2 2 2 2 2 2 2 2 1 1 1 2 2 2 2 3 3 3 4 4 4 4 4 4 4 4 4 4 4 4 4 4
0 0 0 0 0 0 0 0 0 1 1 1 1 1 1 1 1 1 1 1 0 0 1 1 2 2 2 2 2 3 3 3 3 3 3 3 4 4 4 4 4 4 4
-1 -1 -1 -0 -0 -0 -0 -0 -0 -0 -0 -0 -0 -0 0 0 0 0 0 0 0 -1 -0 0 0 1 1 1 2 2 2 2 3 3 3 3 3 3 3 3 3 3 3
-1 -1 -1 -1 -1 -1 -1 -1 -1 -1 -1 -1 -1 -1 -1 -1 -1 -1 -1 -0 -0 -0 -1 -0 -0 0 0 1 1 1 2 2 2 2 2 2 2 2 2 2 2 2 2
-2 -2 -2 -2 -2 -2 -1 -1 -2 -2 -2 -2 -2 -2 -1 -2 -2 -2 -1 -1 -1 -1 -1 -1 -0 -0 -0 0 0 0 1 1 1 1 1 1 1 2 2 2 1 1 2
-2 -2 -2 -3 -2 -2 -2 -2 -2 -2 -2 -2 -2 -2 -2 -2 -2 -2 -2 -2 -2 -2 -2 -2 -1 -1 -1 -1 -1 -0 -0 0 0 0 1 1 1 1 1 1 1 1 1
-3 -3 -3 -3 -3 -3 -3 -3 -3 -3 -3 -3 -3 -3 -3 -3 -3 -3 -3 -2 -2 -2 -2 -2 -2 -2 -2 -2 -1 -1 -1 -1 -0 -0 -0 -0 -0 -0 -0 -0 0 0 0
-4 -4 -4 -4 -4 -4 -4 -4 -4 -4 -4 -4 -4 -4 -3 -3 -3 -3 -3 -3 -3 -3 -3 -3 -3 -2 -2 -2 -2 -2 -2 -1 -1 -1 -1 -1 -1 -1 -1 -1 -1 -1 -1
-4 -4 -4 -4 -4 -4 -4 -4 -4 -4 -4 -4 -4 -4 -4 -4 -4 -4 -4 -4 -4 -4 -4 -4 -4 -3 -3 -3 -3 -3 -3 -2 -2 -2 -1 -1 -1 -1 -1 -1 -1 -1 -2
-5 -5 -5 -5 -5 -5 -5 -5 -5 -5 -5 -5 -5 -5 -5 -5 -4 -4 -4 -4 -4 -4 -4 -4 -4 -4 -4 -3 -3 -3 -3 -3 -3 -2 -2 -2 -2 -2 -2 -2 -2 -2 -2
-6 -6 -6 -6 -6 -5 -5 -5 -6 -6 -6 -5 -5 -5 -5 -5 -5 -5 -5 -5 -5 -4 -4 -4 -4 -4 -4 -4 -4 -4 -4 -4 -3 -3 -3 -3 -3 -3 -3 -3 -3 -3 -3
-6 -6 -6 -6 -6 -6 -6 -6 -6 -6 -6 -6 -6 -6 -6 -5 -5 -5 -5 -5 -5 -5 -5 -5 -5 -4 -4 -4 -4 -4 -4 -4 -4 -4 -4 -4 -3 -4 -3 -3 -3 -3 -3
-7 -7 -7 -7 -7 -6 -6 -6 -7 -7 -7 -6 -6 -6 -6 -6 -6 -6 -6 -6 -5 -5 -5 -5 -5 -5 -5 -5 -4 -5 -5 -5 -5 -4 -4 -4 -4 -4 -4 -4 -4 -4 -4
-7 -7 -7 -7 -7 -7 -7 -7 -7 -7 -7 -7 -7 -7 -7 -6 -6 -6 -6 -6 -6 -6 -6 -6 -5 -5 -5 -5 -5 -5 -5 -5 -5 -5 -5 -5 -5 -5 -5 -5 -5 -5 -5
Wind_Speed
3 4 4 4 4 4 4 4 4 4 4 4 4 5 5 5 6 6 6 6 5 5 4 4 3 3 4 4 5 6 6 6 6 6 6 5 5 5 5 4 3 3 3
4 3 3 3 3 3 3 3 3 3 3 4 3 4 5 5 5 5 5 4 4 4 4 2 2 2 3 4 4 4 4 4 5 4 5 5 4 4 5 3 3 3 2
4 4 2 2 3 3 3 2 2 3 2 3 3 3 3 4 4 4 4 3 2 2 3 2 1 1 3 3 3 3 4 3 4 3 3 3 3 3 3 4 3 3 3
3 3 2 2 2 2 2 2 1 1 1 1 1 2 3 2 2 3 3 3 2 1 1 2 1 1 2 2 2 2 3 3 3 2 2 2 2 2 2 2 3 2 2
2 2 2 2 2 2 2 1 1 1 1 1 1 0 1 1 1 2 2 2 2 2 1 1 1 1 1 1 1 1 2 2 2 1 1 1 2 2 2 2 2 2 1
2 2 1 1 1 1 1 0 1 1 1 0 1 1 1 1 0 1 1 2 2 1 1 1 1 1 1 1 1 0 0 1 1 1 1 1 1 1 1 1 1 2 3
1 1 1 1 1 0 1 0 0 0 1 1 1 1 1 1 1 1 2 2 1 1 1 1 0 0 1 2 1 0 1 1 1 1 1 0 0 1 1 1 2 2 3
2 2 2 1 1 1 1 1 1 1 0 1 1 0 0 1 1 0 1 1 1 2 1 0 1 0 1 2 1 1 1 1 2 2 2 1 1 2 3 2 2 3 3
2 2 2 2 2 2 2 2 2 2 2 1 1 1 1 2 1 1 1 1 1 2 2 2 2 2 1 2 2 2 2 2 2 2 3 3 3 3 3 4 4 3 4
3 3 3 3 3 2 3 2 2 2 3 2 2 1 1 1 1 1 1 1 1 1 1 2 2 2 3 0 2 2 2 3 3 4 4 4 4 4 5 4 5 4 5
4 4 4 3 3 3 3 3 2 2 2 3 2 2 1 1 1 2 3 2 2 1 1 1 2 1 2 1 2 1 2 3 4 5 5 4 4 4 5 5 5 5 6
3 4 4 4 4 3 3 4 3 3 3 3 3 3 2 2 2 2 3 3 3 3 2 1 1 1 2 1 1 1 2 3 4 6 6 6 6 5 5 5 5 5 6
3 4 4 4 3 3 3 3 3 4 4 4 4 4 3 3 2 2 2 3 3 3 2 2 2 1 1 1 2 3 3 3 4 5 7 7 7 6 6 6 6 6 6
4 4 4 4 4 4 5 4 3 4 3 4 5 4 3 3 3 2 2 2 3 3 3 3 1 1 1 1 4 4 4 5 5 5 6 6 7 6 6 6 7 7 7
3 4 4 4 4 5 5 5 4 4 4 4 5 5 4 4 3 3 3 3 3 4 5 3 2 1 2 4 5 5 4 6 7 6 6 6 6 6 6 7 7 7 7
3 4 4 4 4 4 4 4 4 4 5 5 4 5 5 4 3 3 3 3 3 4 6 3 2 3 4 6 7 6 6 8 8 7 7 7 6 7 7 7 8 8 8
4 4 5 5 5 5 4 5 5 5 6 5 5 6 6 5 4 4 4 4 4 3 6 5 4 3 4 4 6 6 7 6 8 9 8 8 7 7 7 8 8 8 8
4 4 4 5 5 5 5 5 6 6 6 6 6 6 7 6 6 5 5 5 5 4 5 7 5 4 5 5 5 5 6 7 7 9 9 8 8 8 7 7 8 8 9
4 5 5 5 5 5 5 6 6 6 6 6 7 7 7 7 7 6 6 6 5 5 4 5 6 4 4 4 4 5 5 5 7 8 9 8 8 8 8 8 8 8 8
5 5 5 6 6 6 6 6 6 6 6 6 7 7 8 8 8 7 7 7 5 5 4 5 5 5 5 4 4 4 4 4 4 5 7 8 8 9 9 9 9 8 8
6 5 5 5 5 5 6 6 6 6 6 6 7 7 8 9 10 9 8 7 6 6 5 5 6 6 5 4 5 4 5 4 4 4 4 5 5 6 7 9 8 8 9
5 5 6 6 6 6 8 9 7 6 6 7 7 7 8 9 11 12 13 12 11 9 8 7 6 7 7 6 5 5 5 4 5 3 4 5 4 5 6 8 9 9 9
5 5 6 6 6 7 9 9 10 7 7 7 7 7 7 8 9 7 9 10 11 13 12 9 8 8 8 7 6 7 6 6 6 4 4 6 4 5 6 8 10 10 10
5 5 6 6 6 7 9 9 9 7 6 7 7 8 8 7 8 7 7 7 8 8 10 8 8 8 8 7 8 8 7 6 5 5 4 5 4 4 6 7 9 10 10
4 5 5 5 6 7 9 10 9 5 6 7 7 8 8 8 11 11 7 7 7 7 9 11 12 11 11 12 9 5 5 5 6 5 3 3 3 3 4 5 7 9 10
5 5 5 5 6 6 9 10 9 6 6 6 6 7 11 11 12 11 8 7 8 7 6 6 7 8 8 8 10 7 6 6 5 5 3 3 3 2 4 4 4 5 7
Wind_Direction
53 47 54 55 42 35 30 29 31 28 32 35 37 39 39 47 59 70 66 52 48 43 47 59 70 90 99 101 90 83 82 79 77 80 80 75 69 60 63 70 85 106 109
52 46 51 48 37 31 26 34 31 30 31 37 33 40 43 42 56 70 77 63 45 39 33 43 64 85 109 116 109 99 84 73 74 77 82 79 70 64 57 63 72 71 92
59 52 56 51 31 29 27 30 43 45 43 38 27 32 43 47 52 63 71 72 56 33 24 21 67 93 124 124 110 101 98 85 72 66 72 70 75 63 52 56 72 66 52
71 64 57 37 32 40 28 14 40 56 47 48 26 12 43 45 50 69 70 65 63 47 9 1 28 84 125 133 116 107 104 93 75 69 67 68 73 61 40 53 60 59 40
87 72 70 34 30 41 29 1 29 58 62 39 359 351 26 33 47 64 70 65 63 62 53 341 342 144 121 130 132 119 101 96 88 84 86 78 68 55 37 47 40 28 7
124 99 91 58 33 49 68 15 31 37 73 26 328 354 304 252 72 75 81 72 74 78 77 63 8 240 183 164 144 123 160 140 126 127 120 81 47 19 356 360 357 334 322
173 147 131 127 81 194 198 196 123 111 88 50 47 347 311 240 184 103 80 80 57 70 107 120 89 336 214 199 176 237 259 248 212 178 155 95 334 301 304 302 319 323 326
190 193 170 176 179 193 211 204 124 164 195 85 89 78 309 308 318 354 47 80 29 37 37 70 119 31 175 154 190 234 258 242 239 237 241 264 289 287 268 275 294 299 307
217 209 202 187 189 187 208 219 187 171 187 192 133 137 170 218 304 288 313 31 31 15 8 22 32 8 299 149 155 222 233 240 252 261 259 261 269 280 276 269 280 283 292
226 224 211 202 200 202 204 224 208 190 178 195 202 225 217 188 208 277 281 280 314 319 347 354 6 5 355 171 161 176 220 233 248 259 263 264 265 265 272 279 277 279 282
217 220 215 203 202 207 207 212 216 201 195 199 204 222 252 280 217 222 253 256 278 282 319 329 340 307 318 293 180 195 231 250 254 256 259 261 269 273 278 284 289 292 286
219 216 224 216 211 208 208 212 212 212 211 208 212 213 215 223 227 240 250 245 260 273 285 285 277 264 250 290 255 231 238 266 269 260 255 256 263 271 277 284 291 300 300
219 217 225 224 220 216 211 210 215 219 223 215 213 220 224 238 230 246 253 256 271 277 267 257 241 241 256 353 300 257 237 257 275 275 265 261 263 265 268 275 282 288 294
219 217 219 222 224 222 218 210 220 221 226 225 223 221 230 236 233 234 232 246 272 272 254 248 272 229 338 321 315 292 254 246 259 269 275 273 270 267 269 275 279 281 284
224 211 217 221 224 224 218 208 217 222 221 231 225 222 228 234 230 231 224 213 227 256 255 247 244 243 302 286 284 286 280 259 252 259 265 268 272 267 265 269 273 275 277
224 211 220 224 223 226 225 215 214 217 220 230 235 224 225 229 230 227 228 232 235 242 257 245 252 274 285 285 280 283 280 280 255 254 258 261 267 265 264 268 268 269 270
229 219 220 220 222 223 223 215 221 222 225 228 236 234 230 226 227 227 227 230 241 244 260 273 273 266 275 281 284 280 278 271 259 250 252 256 260 265 266 268 268 267 267
242 229 223 223 224 226 223 222 223 224 226 229 231 232 237 231 229 231 228 231 237 242 252 271 277 269 268 262 268 273 278 266 264 255 250 251 255 258 264 269 269 268 267
245 236 226 226 229 227 226 230 227 227 228 232 232 230 235 233 230 230 230 233 237 245 244 255 270 273 269 261 267 273 273 272 270 260 251 249 253 258 261 267 270 273 274
237 233 231 229 232 231 229 230 230 230 229 234 236 236 235 234 234 229 231 230 233 237 236 241 258 260 262 258 252 263 277 276 269 265 258 259 259 259 261 264 265 266 270
240 238 233 232 233 230 230 228 226 227 227 231 235 239 239 238 242 240 234 226 227 230 232 240 248 260 258 252 249 255 266 278 269 251 240 249 254 248 253 256 260 264 265
236 233 231 229 234 239 239 237 234 231 229 231 235 237 239 240 244 250 247 242 236 229 228 235 246 247 249 250 251 259 262 270 271 240 229 243 237 239 248 249 255 256 257
233 235 232 228 232 237 237 239 240 238 234 233 236 235 240 240 242 238 244 248 249 249 244 237 236 241 246 245 246 251 251 256 269 254 236 254 234 245 253 256 256 253 257
233 235 235 231 235 239 239 241 243 240 237 237 237 234 235 236 237 239 233 234 239 245 250 248 241 241 246 243 238 243 250 259 276 266 231 257 247 255 269 259 250 250 257
237 238 239 233 235 239 241 243 244 238 240 242 240 235 234 232 239 243 235 231 238 247 258 261 261 259 260 261 257 254 247 251 271 267 228 247 262 277 271 256 249 250 256
237 239 245 238 236 237 242 243 242 233 240 243 241 239 241 240 239 238 228 224 233 239 242 260 262 262 260 258 258 245 233 239 259 263 237 235 256 283 286 274 248 247 252
Height
1526 1527 1528 1529 1530 1531 1531 1532 1533 1534 1535 1536 1537 1538 1539 1540 1540 1541 1542 1543 1544 1545 1545 1546 1547 1548 1548 1550 1550 1551 1552 1552 1553 1554 1554 1555 1556 1556 1557 1558 1558 1559 1560
1524 1526 1527 1528 1528 1529 1530 1531 1531 1533 1533 1534 1535 1536 1537 1538 1539 1539 1540 1541 1542 1543 1543 1544 1545 1546 1547 1548 1548 1549 1550 1551 1551 1552 1553 1553 1554 1555 1555 1556 1557 1557 1558
1522 1523 1525 1526 1526 1527 1528 1529 1530 1531 1532 1533 1533 1534 1535 1536 1537 1537 1538 1539 1539 1540 1541 1542 1543 1544 1545 1546 1546 1547 1548 1549 1549 1550 1551 1551 1552 1553 1553 1554 1555 1555 1556
1520 1521 1522 1523 1524 1525 1526 1527 1528 1529 1529 1530 1531 1532 1533 1533 1534 1535 1535 1536 1537 1538 1539 1540 1541 1542 1543 1543 1544 1545 1545 1546 1547 1548 1549 1549 1550 1550 1551 1551 1552 1553 1554
1517 1518 1519 1520 1522 1522 1523 1524 1525 1526 1527 1528 1528 1529 1530 1531 1532 1532 1533 1534 1535 1535 1536 1537 1538 1539 1540 1541 1541 1542 1543 1543 1544 1545 1546 1547 1547 1548 1548 1549 1549 1550 1551
1514 1515 1516 1517 1518 1519 1520 1521 1522 1523 1524 1525 1526 1527 1528 1529 1529 1530 1530 1531 1532 1532 1533 1534 1535 1536 1537 1538 1538 1539 1540 1541 1542 1543 1543 1544 1545 1545 1546 1546 1547 1547 1548
1511 1512 1513 1514 1515 1516 1517 1518 1519 1520 1521 1522 1523 1523 1525 1526 1527 1527 1527 1528 1529 1529 1530 1531 1532 1533 1534 1535 1535 1536 1537 1538 1539 1540 1540 1541 1542 1542 1543 1543 1543 1544 1545
1507 1508 1509 1510 1511 1512 1514 1515 1516 1516 1517 1519 1520 1520 1521 1524 1524 1524 1524 1525 1525 1526 1527 1527 1528 1529 1530 1531 1532 1533 1534 1535 1536 1536 1537 1537 1538 1539 1539 1540 1540 1541 1541
1503 1504 1505 1506 1507 1508 1509 1511 1512 1512 1513 1515 1517 1518 1519 1519 1519 1520 1521 1522 1522 1523 1523 1524 1524 1525 1526 1527 1528 1529 1530 1531 1532 1533 1533 1534 1534 1535 1536 1536 1537 1537 1537
1498 1500 1501 1502 1503 1504 1505 1507 1508 1509 1510 1511 1512 1514 1516 1515 1516 1515 1517 1518 1519 1519 1519 1520 1520 1521 1521 1522 1523 1525 1526 1527 1528 1529 1529 1530 1530 1531 1532 1532 1533 1533 1533
1493 1494 1496 1497 1498 1500 1501 1502 1503 1504 1505 1506 1507 1509 1511 1512 1512 1512 1511 1513 1514 1515 1515 1516 1516 1516 1517 1518 1519 1520 1521 1522 1523 1524 1525 1525 1526 1527 1527 1528 1528 1528 1529
1488 1489 1491 1492 1493 1495 1496 1497 1498 1500 1501 1502 1503 1504 1505 1506 1507 1508 1508 1508 1509 1510 1511 1511 1512 1512 1513 1513 1515 1515 1516 1517 1518 1519 1520 1520 1521 1522 1522 1523 1523 1524 1524
1482 1483 1485 1487 1488 1490 1491 1492 1493 1495 1496 1497 1498 1499 1501 1502 1503 1504 1505 1504 1504 1505 1505 1506 1507 1508 1508 1509 1509 1510 1511 1512 1513 1514 1515 1516 1516 1517 1517 1518 1518 1519 1519
1477 1479 1480 1482 1483 1485 1486 1487 1488 1489 1490 1492 1493 1494 1495 1497 1498 1499 1500 1500 1500 1500 1500 1501 1502 1503 1504 1504 1504 1505 1506 1507 1508 1509 1509 1510 1511 1511 1512 1513 1513 1513 1514
1472 1473 1475 1476 1478 1479 1481 1482 1483 1484 1485 1486 1487 1488 1490 1491 1493 1494 1495 1496 1497 1495 1495 1495 1497 1497 1498 1499 1499 1500 1500 1501 1502 1503 1504 1504 1505 1506 1507 1507 1508 1508 1509
1467 1468 1469 1471 1472 1473 1475 1476 1477 1478 1480 1480 1482 1483 1484 1486 1487 1488 1489 1490 1491 1491 1489 1489 1491 1492 1493 1494 1494 1494 1495 1495 1496 1497 1498 1499 1499 1500 1501 1501 1502 1502 1503
1461 1462 1463 1465 1466 1467 1469 1470 1471 1473 1474 1475 1476 1477 1478 1480 1481 1482 1483 1484 1485 1486 1485 1484 1486 1487 1487 1488 1488 1488 1488 1489 1490 1491 1492 1493 1493 1494 1495 1495 1496 1496 1497
1455 1456 1457 1459 1460 1461 1462 1464 1465 1466 1468 1469 1470 1471 1472 1474 1475 1476 1477 1478 1479 1480 1481 1479 1480 1480 1481 1482 1482 1483 1483 1483 1484 1485 1486 1487 1488 1488 1489 1489 1490 1490 1490
1449 1450 1451 1452 1453 1455 1456 1457 1459 1460 1461 1462 1464 1465 1466 1468 1468 1470 1471 1472 1473 1474 1475 1475 1474 1475 1475 1477 1477 1477 1477 1477 1478 1479 1480 1481 1482 1482 1483 1483 1484 1484 1484
1443 1444 1445 1446 1447 1448 1450 1451 1452 1454 1455 1456 1457 1458 1460 1461 1462 1464 1465 1466 1467 1468 1469 1470 1469 1469 1470 1471 1471 1471 1471 1472 1472 1473 1474 1475 1476 1476 1477 1478 1478 1478 1478
1437 1438 1439 1440 1441 1442 1443 1445 1446 1447 1449 1450 1451 1452 1453 1455 1456 1458 1459 1460 1461 1462 1463 1464 1464 1464 1464 1465 1466 1466 1466 1466 1466 1467 1467 1468 1469 1470 1471 1471 1472 1472 1472
1431 1432 1433 1434 1435 1436 1437 1439 1440 1441 1442 1443 1444 1446 1447 1448 1449 1451 1453 1454 1455 1456 1457 1458 1459 1459 1459 1460 1461 1461 1461 1460 1460 1461 1461 1462 1463 1463 1464 1464 1465 1466 1467
1426 1426 1427 1428 1429 1430 1431 1433 1434 1435 1436 1437 1439 1439 1440 1442 1444 1444 1446 1447 1448 1450 1451 1452 1453 1453 1453 1454 1455 1455 1455 1455 1454 1454 1455 1454 1456 1456 1457 1458 1458 1459 1460
1420 1421 1422 1422 1423 1424 1426 1427 1428 1430 1430 1431 1433 1433 1434 1435 1437 1438 1439 1440 1441 1442 1444 1445 1445 1446 1447 1449 1449 1449 1449 1448 1448 1449 1449 1448 1448 1449 1450 1451 1452 1453 1453
1415 1416 1417 1417 1418 1419 1420 1421 1423 1423 1424 1425 1426 1427 1429 1430 1431 1433 1434 1434 1435 1436 1437 1439 1439 1440 1441 1443 1443 1444 1443 1443 1442 1442 1443 1442 1441 1443 1444 1444 1445 1446 1447
1410 1411 1412 1413 1413 1413 1414 1416 1417 1418 1418 1419 1420 1421 1422 1424 1425 1426 1427 1428 1428 1429 1431 1432 1433 1434 1435 1436 1437 1437 1437 1437 1436 1435 1435 1436 1436 1437 1436 1437 1438 1439 1439